• Join FlightAware (Why Join?)
  • Login
  • US Flag 
06:18AM EST


 

Airport Tracker/Info


-or-


 

Live Flight TrackerFlight Track Log ✈ EJA365 ✈ 09-Apr-2013 ✈ KBWI - KLEX

Flight Track Log - Related Links

Times and Time Zones

All times are in EDT time to prevent confusion due to time zone crossing. See the EJA365 flight status page for this flight to view local times or setup timezone preferences in your user account.

Time Position Orientation Groundspeed Altitude Reporting Facility
EDT Latitude Longitude Course Direction KTS MPH feet Rate Location/Type
10:06AM 39.2167 -76.7000 314° West 191 220 4,100  Level Potomac TRACON
10:07AM 39.2667 -76.7667 314° West 229 264 8,700 4,400 Climbing Potomac TRACON
10:08AM 39.2833 -76.8500 285° West 266 306 12,900 3,000 Climbing Potomac TRACON
10:09AM 39.2667 -76.9500 258° West 271 312 15,000 1,482 Climbing Potomac TRACON
10:11AM 39.2353 -77.0975 255° West 277 319 17,000 1,650 Climbing Washington Center
10:12AM 39.1675 -77.1978 229° Southwest 347 399 19,400 2,450 Climbing Washington Center
10:13AM 39.1264 -77.2933 241° Southwest 347 399 21,900 1,300 Climbing Washington Center
10:14AM 39.0831 -77.4206 246° West 346 398 22,000 50 Climbing Washington Center
10:15AM 39.0519 -77.5375 251° West 377 434 22,000 446 Level Washington Center
10:16AM 39.0122 -77.6728 249° West 377 434 22,900 500 Climbing Washington Center
10:17AM 38.9789 -77.7892 250° West 383 441 23,000 504 Climbing Washington Center
10:18AM 38.9367 -77.9294 249° West 383 441 23,900 1,400 Climbing Washington Center
10:19AM 38.9031 -78.0431 249° West 383 441 25,800 2,000 Climbing Washington Center
10:20AM 38.8606 -78.1803 248° West 383 441 27,900 2,000 Climbing Washington Center
10:21AM 38.8539 -78.3000 266° West 376 433 29,800 1,983 Climbing Washington Center
10:22AM 38.8525 -78.4439 269° West 364 419 31,900 1,950 Climbing Washington Center
10:23AM 38.8556 -78.5800 272° West 372 428 33,700 1,916 Climbing Washington Center
10:24AM 38.8522 -78.7025 268° West 372 428 35,700 1,934 Climbing Washington Center
10:25AM 38.8494 -78.8144 268° West 355 409 37,600 1,650 Climbing Washington Center
10:26AM 38.8458 -78.9419 268° West 337 388 39,000 706 Climbing Washington Center
10:27AM 38.8431 -79.0458 268° West 350 403 39,000  Level Washington Center
10:28AM 38.8425 -79.2058 270° West 383 441 39,000  Level Washington Center
10:29AM 38.8253 -79.3594 262° West 401 461 39,000  Level Washington Center
10:30AM 38.8064 -79.4944 260° West 403 464 39,000  Level Washington Center
10:31AM 38.7892 -79.6347 261° West 403 464 39,000  Level Washington Center
10:32AM 38.7744 -79.7592 261° West 398 458 39,000  Level Washington Center
10:33AM 38.7550 -79.8964 260° West 398 458 39,000  Level Washington Center
10:34AM 38.7353 -80.0364 260° West 403 464 39,000  Level Washington Center
10:35AM 38.7058 -80.2356 259° West 397 457 39,000 164 Level Indianapolis Center
10:36AM 38.6878 -80.3747 261° West 397 457 39,400 484 Climbing Indianapolis Center
10:37AM 38.6703 -80.5108 261° West 385 443 40,000 290 Climbing Indianapolis Center
10:38AM 38.6511 -80.6478 260° West 395 455 40,000  Level Indianapolis Center
10:39AM 38.6308 -80.7908 260° West 406 467 40,000  Level Indianapolis Center
10:40AM 38.6117 -80.9342 260° West 409 471 40,000  Level Indianapolis Center
10:41AM 38.5872 -81.1072 260° West 411 473 40,000  Level Indianapolis Center
10:42AM 38.5669 -81.2522 260° West 412 474 40,000  Level Indianapolis Center
10:43AM 38.5456 -81.3961 259° West 409 471 40,000  Level Indianapolis Center
10:44AM 38.5250 -81.5419 260° West 409 471 40,000 -484 Level Indianapolis Center
10:45AM 38.5039 -81.6850 259° West 405 466 39,000 -1,452 Descending Indianapolis Center
10:46AM 38.4842 -81.8197 259° West 385 443 37,000 -1,452 Descending Indianapolis Center
10:47AM 38.4639 -81.9606 260° West 400 460 36,000 -484 Descending Indianapolis Center
10:48AM 38.4428 -82.0972 259° West 395 455 36,000 -823 Level Indianapolis Center
10:49AM 38.4219 -82.2369 259° West 400 460 34,300 -1,984 Descending Indianapolis Center
10:51AM 38.3964 -82.4047 259° West 402 463 31,900 -2,129 Descending Indianapolis Center
10:52AM 38.3744 -82.5492 259° West 408 470 29,900 -1,935 Descending Indianapolis Center
10:53AM 38.3519 -82.6914 259° West 408 470 27,900 -1,887 Descending Indianapolis Center
10:54AM 38.3306 -82.8303 259° West 404 465 26,000 -1,839 Descending Indianapolis Center
10:55AM 38.3092 -82.9656 259° West 393 452 24,100 -1,854 Descending Indianapolis Center
10:56AM 38.2869 -83.1003 258° West 391 450 22,200 -2,000 Descending Indianapolis Center
10:57AM 38.2625 -83.2525 258° West 378 435 20,000 -2,032 Descending Indianapolis Center
10:58AM 38.2417 -83.3792 258° West 370 426 18,000 -1,694 Descending Indianapolis Center
10:59AM 38.2231 -83.5011 259° West 357 411 16,500 -1,548 Descending Indianapolis Center
11:00AM 38.2022 -83.6208 258° West 350 403 14,800 -1,597 Descending Indianapolis Center
11:01AM 38.1836 -83.7381 259° West 341 392 13,200 -1,548 Descending Indianapolis Center
11:02AM 38.1661 -83.8503 259° West 328 377 11,600 -1,548 Descending Indianapolis Center
11:03AM 38.1586 -83.9769 266° West 313 360 10,000 -780 Descending Indianapolis Center
11:04AM 38.1511 -84.0853 265° West 309 356 10,000 -683 Level Indianapolis Center
11:05AM 38.1442 -84.1933 265° West 309 356 8,600 -1,500 Descending Indianapolis Center
11:06AM 38.1361 -84.2942 264° West 298 343 6,900 -1,548 Descending Indianapolis Center
11:07AM 38.1308 -84.3803 266° West 273 314 5,400 -1,366 Descending Indianapolis Center
11:08AM 38.1231 -84.4608 263° West 249 287 4,100 -1,268 Descending Indianapolis Center
11:09AM 38.0944 -84.5369 244° Southwest 220 253 2,800 -774 Descending Indianapolis Center
11:10AM 38.0631 -84.5933 235° Southwest 217 250 2,500 -290 Descending Indianapolis Center
11:12AM 38.0333 -84.6000 270° West  Level FlightAware Approximate
11:19AM 38.0368 -84.6086 270° West  Level Estimated
11:20AM 38.0368 -84.6086 270° West  Level Estimated